Location: Bremen
(53.0793°N, 8.8017°E)
Time: 11:51:54
(UTC+02:00)

Altair - Pass Details

Date: 19 April 2024
Orbit: 1501 x 1682 km, 47.2° (Epoch: 17 May)

Event Time Altitude Azimuth Distance (km) Brightness Sun altitude
Rises 00:24:39 0° 270° (W) 4,868 10.3 -24.4°
Reaches altitude 10° 00:27:53 10° 267° (W) 3,859 9.7 -24.6°
Maximum altitude 00:37:25 60° 191° (SSW) 1,780 7.5 -24.9°
Enters shadow 00:42:47 28° 124° (SE) 2,608 8.3 -25.1°
Drops below altitude 10° 00:46:35 10° 115° (ESE) 3,715 - -25.2°
Sets 00:49:38 0° 112° (ESE) 4,678 - -25.2°
